Overview Statistics Trail Chart Weather Telemetry Raw packets
 

This is the latest recevied weather packets stored in our database for station/object DB0OHL. If no packets are shown the sender has not sent any weather packets the latest 10 day(s).

<< 22 23 24 25 26 27 28 >>
Time Temp. Humidity Pressure Rain* Wind** Luminosity Snow
1777474539 17.78° C 45% 1024.5 hPa 0 mm - - -
1777473936 18.33° C 44% 1024.4 hPa 0 mm - - -
1777473334 17.78° C 44% 1024.4 hPa 0 mm - - -
1777472731 18.33° C 44% 1024.5 hPa 0 mm - - -
1777472129 17.78° C 44% 1024.5 hPa 0 mm - - -
1777471526 17.78° C 46% 1024.4 hPa 0 mm - - -
1777470924 17.78° C 45% 1024.4 hPa 0 mm - - -
1777470321 17.78° C 44% 1024.4 hPa 0 mm - - -
1777469718 17.78° C 45% 1024.5 hPa 0 mm - - -
1777469116 17.78° C 45% 1024.5 hPa 0 mm - - -
1777468574 18.33° C 45% 1024.6 hPa 0 mm - - -
1777467971 17.78° C 44% 1024.6 hPa 0 mm - - -
1777467368 17.78° C 45% 1024.7 hPa 0 mm - - -
1777466766 17.78° C 46% 1024.6 hPa 0 mm - - -
1777466163 17.78° C 43% 1024.6 hPa 0 mm - - -
1777465561 17.78° C 44% 1024.7 hPa 0 mm - - -
1777464958 17.78° C 44% 1024.7 hPa 0 mm - - -
1777464356 17.78° C 45% 1024.8 hPa 0 mm - - -
1777463753 17.22° C 46% 1024.9 hPa 0 mm - - -
1777463150 17.22° C 44% 1024.9 hPa 0 mm - - -
1777462548 17.22° C 45% 1025.2 hPa 0 mm - - -
1777461945 17.22° C 44% 1024.9 hPa 0 mm - - -
1777461343 17.22° C 46% 1025.1 hPa 0 mm - - -
1777460740 16.67° C 45% 1025.2 hPa 0 mm - - -
1777460138 17.22° C 44% 1025.1 hPa 0 mm - - -

* Rain latest hour (hover to see other rain measurements)
** Current wind speed in m/s (hover to see current wind gust speed)